St. George, AK

10:02 AM AKDT on July 24, 2017 (GMT -0800)
Saint George

Weather History for PAPB - October, 2012

Change the Weather History Date:

Friday, October 26, 2012

  Actual Average Record
Temperature  
Mean Temperature 38 °F -  
Max Temperature 41 °F 38 °F 45 °F (2015)
Min Temperature 35 °F 31 °F 24 °F (1999)
Degree Days  
Heating Degree Days 27    
Moisture  
Dew Point 31 °F    
Average Humidity 77    
Maximum Humidity 87    
Minimum Humidity 65    
Precipitation  
Precipitation 0.00 in - - ()
Sea Level Pressure  
Sea Level Pressure 30.26 in    
Wind  
Wind Speed 20 mph (NE)    
Max Wind Speed 26 mph    
Max Gust Speed 33 mph    
Visibility 10 miles    
Events      
Averages and records for this station are not official NWS values.
T = Trace of Precipitation, MM = Missing Value Source: NWS Daily Summary

Daily Weather History Graph

Daily Weather History Graph

Search for Another Location

Airport or City:

Trip Planner

Search our weather history database for the weather conditions in past years. The results will help you decide how hot, cold, wet, or windy it might be!

Date:

Astronomy

Oct. 26, 2012 Rise Set
Actual Time 10:16 AM AKDT 7:47 PM AKDT
Civil Twilight 9:36 AM AKDT 8:27 PM AKDT
Nautical Twilight 8:52 AM AKDT 9:11 PM AKDT
Astronomical Twilight 8:08 AM AKDT 9:55 PM AKDT
Moon 6:30 PM AKDT (10/26) 6:59 AM AKDT (10/26)
Length of Visible Light 10h 50m
Length of Day
9h 31m
Waxing Gibbous, 92% of the Moon is Illuminated
Oct 26
Waxing Gibbous
Oct 29
Full
Nov 6
Last Quarter
Nov 13
New
Nov 20
First Quarter

Hourly Weather History & Observations

Time (AKDT) Temp. Windchill Dew Point Humidity Pressure Visibility Wind Dir Wind Speed Gust Speed Precip Events Conditions
12:53 AM 36.0 °F 26.7 °F 28.0 °F 73% 30.34 in 10.0 mi ENE 15.0 mph - N/A   Overcast
1:24 AM 35.6 °F 26.2 °F 28.4 °F 75% 30.37 in 10.0 mi ENE 15.0 mph - N/A   Scattered Clouds
1:38 AM 35.6 °F 25.2 °F 28.4 °F 75% 30.37 in 10.0 mi ENE 18.4 mph - N/A   Mostly Cloudy
1:53 AM 36.0 °F 26.0 °F 30.0 °F 79% 30.34 in 10.0 mi ENE 17.3 mph - N/A   Mostly Cloudy
2:53 AM 37.0 °F 28.1 °F 28.0 °F 70% 30.33 in 10.0 mi ENE 15.0 mph - N/A   Overcast
3:53 AM 37.0 °F 26.7 °F 28.9 °F 73% 30.33 in 10.0 mi ENE 19.6 mph - N/A   Overcast
4:06 AM 37.4 °F 27.2 °F 30.2 °F 75% 30.35 in 10.0 mi ENE 19.6 mph - N/A   Overcast
4:53 AM 37.0 °F 27.0 °F 30.9 °F 79% 30.32 in 10.0 mi ENE 18.4 mph 28.8 mph N/A   Overcast
5:53 AM 37.0 °F 26.4 °F 30.9 °F 79% 30.30 in 10.0 mi NE 20.7 mph 28.8 mph N/A   Overcast
6:49 AM 37.4 °F 26.4 °F 30.2 °F 75% 30.32 in 10.0 mi ENE 23.0 mph 28.8 mph N/A   Scattered Clouds
6:53 AM 37.0 °F 25.6 °F 30.9 °F 79% 30.29 in 10.0 mi ENE 24.2 mph 28.8 mph N/A   Scattered Clouds
7:53 AM 37.0 °F 26.4 °F 32.0 °F 82% 30.29 in 10.0 mi ENE 20.7 mph 26.5 mph N/A   Clear
8:53 AM 37.0 °F 25.6 °F 32.0 °F 82% 30.28 in 10.0 mi NE 24.2 mph 28.8 mph N/A   Partly Cloudy
9:53 AM 37.0 °F 26.2 °F 33.1 °F 86% 30.28 in 10.0 mi ENE 21.9 mph 29.9 mph N/A   Scattered Clouds
10:00 AM 37.4 °F 26.6 °F 33.8 °F 87% 30.31 in 10.0 mi ENE 21.9 mph - N/A   Mostly Cloudy
10:53 AM 37.9 °F 27.9 °F 33.1 °F 83% 30.27 in 10.0 mi ENE 19.6 mph 27.6 mph N/A   Overcast
11:53 AM 39.0 °F 28.8 °F 34.0 °F 82% 30.26 in 10.0 mi NE 21.9 mph 28.8 mph N/A   Mostly Cloudy
12:08 PM 39.2 °F 28.7 °F 33.8 °F 81% 30.29 in 10.0 mi NE 23.0 mph - N/A   Mostly Cloudy
12:32 PM 39.2 °F 29.3 °F 33.8 °F 81% 30.29 in 10.0 mi NE 20.7 mph 28.8 mph N/A   Scattered Clouds
12:46 PM 39.2 °F 28.7 °F 33.8 °F 81% 30.29 in 10.0 mi NE 23.0 mph 31.1 mph N/A   Mostly Cloudy
12:53 PM 39.9 °F 29.5 °F 34.0 °F 79% 30.25 in 10.0 mi NE 24.2 mph - N/A   Scattered Clouds
1:53 PM 39.9 °F 29.5 °F 34.0 °F 79% 30.24 in 10.0 mi NE 24.2 mph 32.2 mph N/A   Partly Cloudy
2:53 PM 41.0 °F 30.5 °F 34.0 °F 76% 30.23 in 10.0 mi NE 26.5 mph - N/A   Clear
3:53 PM 41.0 °F 30.5 °F 34.0 °F 76% 30.22 in 10.0 mi NE 26.5 mph 33.4 mph N/A   Partly Cloudy
4:53 PM 41.0 °F 30.7 °F 32.0 °F 70% 30.21 in 10.0 mi NE 25.3 mph - N/A   Clear
5:53 PM 39.9 °F 29.2 °F 32.0 °F 73% 30.19 in 10.0 mi NE 25.3 mph 33.4 mph N/A   Clear
6:53 PM 39.0 °F 28.5 °F 30.9 °F 73% 30.17 in 10.0 mi NE 23.0 mph - N/A   Clear
7:53 PM 37.0 °F 25.1 °F 27.0 °F 67% 30.15 in 10.0 mi NE 26.5 mph 33.4 mph N/A   Clear
8:53 PM 37.0 °F 25.4 °F 26.1 °F 65% 30.14 in 10.0 mi NE 25.3 mph 31.1 mph N/A   Clear
9:53 PM 37.0 °F 25.4 °F 30.9 °F 79% 30.13 in 10.0 mi NE 25.3 mph - N/A   Clear
10:53 PM 36.0 °F 23.9 °F 30.9 °F 82% 30.11 in 10.0 mi NE 25.3 mph - N/A   Partly Cloudy
11:53 PM 36.0 °F 23.9 °F 30.9 °F 82% 30.10 in 10.0 mi NE 25.3 mph - N/A   Clear